Temperature
23 23 22 23 26 26 27 30 32 32 32 31 31 31 29 28 26 25 25 25 23 22 22 22 21 21 20 20 20 19 19 19 19 19 19 19 19 19 18 18 18 18 18 18 18 18 18 18 18
23 23 24 26 27 26 28 31 32 31 31 31 31 30 29 27 26 26 25 24 23 22 22 22 21 21 20 20 20 19 19 19 19 19 19 19 19 18 18 18 18 18 18 18 18 18 18 18 18
24 24 26 29 29 29 30 32 32 32 31 31 31 30 28 26 26 25 25 24 22 22 22 22 21 21 20 20 19 19 19 19 19 19 19 19 19 18 18 18 18 18 18 18 18 18 18 18 18
23 26 28 29 30 32 33 33 33 32 31 31 30 29 27 25 25 25 24 23 22 21 21 21 21 20 20 20 19 19 19 19 19 19 19 19 19 19 18 18 19 19 19 18 18 18 18 18 18
25 28 29 29 30 32 33 33 32 32 31 30 30 27 25 25 25 24 24 23 22 21 21 21 21 20 20 20 19 19 19 19 19 19 19 19 19 19 19 18 19 19 18 18 18 18 18 18 18
27 30 29 30 31 33 33 33 32 32 31 30 29 28 24 24 24 24 24 23 22 21 21 21 21 20 20 20 20 19 19 19 19 19 19 19 19 19 19 18 18 19 18 18 18 18 18 18 18
28 30 30 31 32 32 33 32 32 31 30 29 29 28 25 24 24 23 23 23 22 21 21 21 21 20 20 20 20 19 19 19 19 19 19 19 19 19 19 18 19 19 18 18 18 18 18 18 18
29 30 30 32 32 32 33 32 31 31 29 29 28 27 24 23 23 23 23 23 22 21 20 21 20 20 20 20 20 19 19 19 19 19 19 19 19 19 19 19 18 19 18 18 19 19 19 18 18
30 30 30 32 32 32 32 32 31 30 29 28 27 26 24 23 23 23 23 22 22 21 20 20 19 20 19 19 19 19 19 19 19 19 19 19 18 18 18 18 18 18 19 18 19 19 19 19 19
31 30 31 33 33 33 32 32 31 31 29 27 26 24 24 23 23 23 22 22 22 21 21 20 20 19 19 19 19 19 19 19 19 19 19 18 18 18 18 18 18 18 18 18 18 18 18 18 18
32 31 32 33 32 32 32 31 31 31 28 27 25 24 23 23 22 22 22 22 22 21 21 20 20 19 19 19 19 19 18 19 18 18 18 18 18 18 18 18 18 18 18 18 18 18 18 18 18
32 32 32 32 32 32 32 31 31 30 28 26 25 24 23 22 22 22 22 22 21 21 21 20 20 19 19 19 19 19 19 19 19 18 18 18 18 18 18 18 18 18 18 18 18 18 18 18 18
32 32 32 32 32 32 31 31 30 29 27 26 25 24 23 22 22 21 21 21 21 21 21 20 20 19 19 19 19 19 19 19 19 18 18 18 18 18 18 18 18 18 17 17 17 17 17 18 18
32 33 32 32 32 31 31 31 30 28 27 25 25 24 23 22 21 21 21 21 20 20 20 20 19 19 19 19 19 19 19 19 19 19 18 18 18 18 18 18 18 17 17 17 17 17 17 17 17
32 32 32 32 31 31 31 30 29 27 26 25 25 24 23 22 21 21 20 20 20 20 20 19 19 19 19 19 19 19 19 19 18 18 18 18 18 18 18 17 17 17 17 17 17 17 17 17 17
32 31 30 31 31 31 30 28 28 26 26 25 25 24 22 21 21 21 20 20 20 20 19 19 19 19 19 19 19 19 19 18 18 18 18 18 18 18 17 17 17 17 17 17 17 17 17 17 17
30 29 29 30 31 32 31 29 28 27 27 26 25 23 22 21 21 20 20 20 20 19 19 19 19 19 19 19 19 18 18 18 18 18 18 17 17 17 17 17 17 17 17 17 17 16 17 17 17
30 30 30 30 31 32 31 29 29 28 27 26 25 23 22 21 21 20 20 19 19 19 19 19 19 18 18 18 18 18 18 18 18 18 18 17 17 17 17 17 17 17 16 16 16 16 16 16 17
31 31 31 31 32 31 30 30 29 28 27 26 25 23 22 21 20 20 19 19 19 18 18 18 18 18 18 18 18 18 18 18 18 17 17 17 17 17 17 17 17 16 16 16 16 16 16 16 17
32 31 31 31 32 31 30 30 29 28 27 26 25 23 22 21 20 20 19 19 19 18 18 18 18 18 18 18 18 18 18 18 17 17 17 17 17 17 17 17 16 16 16 16 16 16 16 16 16
31 31 31 30 31 31 30 29 28 28 27 26 26 24 23 22 21 20 19 19 19 18 18 18 18 18 18 18 18 18 18 17 17 17 17 17 16 16 16 16 16 16 16 16 16 15 16 16 16
31 32 31 31 30 29 28 27 27 27 27 26 26 25 23 22 21 20 20 19 19 18 18 18 18 18 18 18 18 18 18 18 17 17 17 17 16 16 16 16 16 16 16 16 15 15 15 15 16
31 32 31 31 30 28 27 26 27 28 26 26 26 25 24 23 22 21 20 19 19 18 18 18 18 18 18 18 18 18 18 18 18 17 17 16 16 16 16 16 16 15 15 15 15 15 15 15 15
32 31 30 29 27 24 25 26 26 27 28 28 27 26 24 23 22 21 20 20 19 19 18 18 18 18 18 18 18 18 18 18 17 17 17 17 16 16 16 16 15 15 15 15 15 15 15 15 15
31 29 27 25 23 22 24 25 26 28 29 29 27 26 25 24 22 21 21 20 19 19 18 18 18 18 18 18 18 18 18 18 17 17 17 17 17 16 16 16 15 15 15 15 15 15 14 14 14
30 29 27 25 24 24 24 25 27 29 30 29 27 26 25 24 23 22 21 20 19 19 19 18 18 18 18 18 17 17 17 17 17 17 17 17 17 17 16 16 15 15 15 15 15 14 14 14 14
30 30 30 28 27 27 25 25 27 29 29 29 27 26 25 24 23 22 21 20 20 19 19 18 18 18 18 18 17 17 17 17 17 17 17 17 17 17 16 16 15 15 15 15 15 14 14 14 14
31 31 30 28 26 26 25 24 24 25 28 28 28 27 26 25 24 23 22 21 20 20 19 19 18 18 18 18 18 17 17 17 17 17 17 17 16 16 16 16 15 15 15 15 15 14 14 14 14
30 30 29 29 28 26 25 25 26 26 27 28 28 27 26 25 24 23 22 22 21 20 19 19 18 18 18 18 18 17 17 17 17 17 17 17 16 16 16 16 15 15 15 15 15 15 14 14 14
30 29 28 27 26 27 27 26 28 28 29 29 28 28 27 26 25 24 23 22 21 21 20 19 19 18 18 18 18 18 17 17 17 17 17 17 16 16 16 16 16 15 15 15 15 15 14 14 14
Wind_Speed
11 14 12 8 5 4 7 5 7 9 8 9 8 7 11 13 10 9 11 18 25 23 22 21 20 19 17 17 16 16 15 15 14 14 13 13 13 13 13 14 14 14 14 14 14 14 14 13 12
12 15 11 6 6 5 3 5 8 9 7 6 6 6 11 13 12 12 14 19 25 23 21 20 21 19 18 17 16 16 15 15 14 13 13 13 13 13 13 14 13 13 13 13 13 14 13 12 11
14 18 9 8 9 6 2 6 7 7 5 3 4 6 8 9 10 11 15 20 22 21 21 21 21 20 18 17 17 16 15 14 14 13 12 12 12 12 12 13 13 13 12 13 13 13 12 12 10
9 9 6 8 9 6 6 7 5 5 4 2 3 7 9 8 8 13 18 20 21 21 21 22 21 20 19 17 16 16 15 14 13 13 12 12 12 11 12 12 12 12 12 12 12 12 11 10 9
11 8 10 10 10 4 6 6 4 3 3 4 4 8 9 8 11 16 17 20 21 21 21 21 21 20 19 17 16 15 14 14 13 12 12 11 11 11 11 11 11 11 11 11 11 11 10 9 7
8 10 11 9 6 2 4 4 3 3 4 4 3 8 6 8 12 14 16 18 19 21 20 21 20 19 18 17 16 15 14 13 13 12 11 11 11 10 10 10 10 10 10 10 9 9 8 7 6
11 12 14 13 5 2 3 4 4 5 6 5 3 5 8 11 12 13 14 15 19 21 20 18 19 18 17 17 16 15 14 13 12 12 11 11 10 10 10 9 9 9 9 8 8 7 6 5 4
11 11 15 11 4 3 4 3 4 5 4 3 3 4 8 10 11 13 13 14 18 19 19 16 18 17 16 15 15 14 13 13 12 11 10 10 10 10 10 10 10 9 8 7 6 5 5 4 3
12 11 12 9 5 4 4 3 3 2 3 4 6 10 12 13 13 13 11 12 15 17 16 17 17 15 16 16 16 15 13 12 12 11 11 10 10 11 10 10 11 9 8 7 6 4 4 4 5
9 9 9 7 8 6 5 4 3 1 2 4 8 10 12 13 12 12 12 12 14 14 15 14 16 13 13 14 15 13 12 12 11 10 11 10 7 9 11 13 11 9 8 7 6 5 5 6 6
10 9 8 7 5 6 6 4 3 2 2 4 6 9 10 12 11 10 10 11 12 12 11 14 13 10 10 9 11 8 9 10 10 10 9 6 5 8 11 10 9 8 8 6 6 5 4 3 1
9 9 8 7 5 5 5 4 3 2 4 7 7 9 10 10 10 9 9 11 11 10 9 11 13 9 7 8 7 6 6 6 6 8 5 5 3 3 6 5 7 6 5 4 3 2 0 2 3
10 10 9 7 6 5 4 4 2 3 7 7 8 9 10 9 9 8 8 7 9 8 8 9 10 9 7 6 4 5 4 5 7 8 5 5 4 3 4 4 3 3 5 4 2 1 1 1 2
10 9 9 8 6 5 5 4 2 4 7 7 6 7 8 9 10 10 9 9 10 9 8 9 10 10 8 6 3 2 4 5 6 6 6 4 6 5 4 3 2 2 4 4 2 2 1 1 1
11 11 11 8 8 7 6 5 3 7 7 6 6 6 7 8 9 9 10 10 11 10 8 8 10 10 9 7 5 4 4 6 5 6 6 5 6 5 4 3 3 2 4 4 2 1 2 2 2
13 12 10 9 10 6 6 4 7 9 8 7 6 7 8 7 8 8 9 10 10 11 10 9 10 11 9 7 4 3 4 5 5 7 6 6 6 5 4 3 3 2 3 3 2 1 1 1 1
11 9 10 9 9 7 7 3 10 10 8 8 7 6 7 8 8 9 10 10 9 10 10 8 9 10 9 8 5 3 4 4 5 7 7 6 6 5 4 4 3 1 2 2 2 3 2 2 2
10 9 8 6 5 6 7 4 9 10 9 8 8 7 6 8 8 8 9 9 10 10 10 9 9 9 9 7 5 4 5 4 3 5 6 7 6 5 5 5 3 2 3 3 3 1 0 2 2
12 12 10 7 4 6 8 6 8 9 9 8 8 8 7 7 8 8 9 10 12 11 11 10 10 9 8 6 6 5 5 4 4 5 8 7 6 6 3 4 3 2 3 3 2 2 2 1 1
13 13 12 8 6 8 9 8 7 9 9 9 9 9 9 9 9 10 10 11 12 12 12 11 11 10 9 7 5 5 5 4 5 5 6 7 6 5 5 4 2 3 3 3 2 2 2 3 2
13 12 11 11 11 10 9 9 6 9 8 9 9 10 11 11 11 11 11 11 12 13 13 12 11 11 9 9 6 5 4 3 5 7 5 5 6 5 4 4 2 2 2 3 1 1 2 3 3
12 10 12 13 13 9 6 6 5 10 10 9 10 10 11 11 13 13 13 12 13 13 12 12 11 10 9 8 7 8 7 6 7 6 6 5 5 5 5 4 3 1 1 3 1 3 2 2 3
12 10 13 14 14 10 7 7 5 10 10 12 11 11 11 12 13 13 14 13 14 14 13 12 12 10 9 8 8 8 6 6 6 6 7 6 5 4 5 5 4 2 1 3 2 2 2 2 3
11 11 12 10 6 6 10 9 4 7 10 12 12 12 11 12 13 13 13 12 12 13 13 13 12 11 10 9 8 7 6 6 8 8 8 6 5 5 5 6 4 2 1 2 2 1 1 0 2
10 9 7 6 2 4 11 6 2 5 6 10 12 13 13 13 13 13 13 14 13 14 14 13 13 11 10 9 8 7 6 6 8 7 7 6 6 6 5 5 4 2 2 2 2 2 1 0 0
11 11 9 7 6 6 5 3 3 3 7 10 13 14 13 14 13 14 14 14 14 14 14 13 13 12 11 9 8 7 7 6 6 6 5 5 3 6 8 6 5 4 3 3 3 2 3 2 1
14 12 11 10 13 10 1 1 2 3 6 9 12 14 14 14 15 15 15 15 15 14 14 14 13 11 10 10 8 7 7 6 6 6 4 4 3 6 8 6 6 4 3 2 2 2 1 2 2
15 11 8 8 7 7 3 1 2 4 6 9 12 14 14 14 15 15 15 16 15 14 13 13 13 11 10 11 10 10 8 7 6 7 6 4 5 5 7 6 6 5 5 4 3 3 3 3 2
12 11 9 8 7 7 6 1 4 6 5 8 11 14 15 15 15 15 14 15 15 15 15 13 13 12 11 11 10 9 9 8 7 6 7 6 5 6 6 6 6 5 5 5 4 4 3 4 4
12 11 10 9 9 9 8 1 2 2 2 7 9 12 14 14 15 15 15 14 14 15 15 14 14 14 12 11 10 9 9 9 8 8 7 7 7 7 7 6 6 6 6 6 5 6 4 4 4
Wind_Direction
233 243 240 252 250 257 283 317 50 54 54 56 48 51 67 65 73 102 132 129 122 125 131 133 132 132 131 130 128 126 124 121 118 114 111 106 103 99 97 95 93 92 91 90 88 87 86 87 87
255 254 246 247 248 254 288 349 54 65 64 67 72 68 77 74 89 112 122 123 123 128 135 135 133 132 131 130 130 129 128 125 121 118 114 110 106 103 100 99 97 94 93 92 90 88 88 88 88
260 264 264 251 261 277 43 58 56 74 80 76 78 67 69 88 96 119 126 126 125 128 129 132 135 133 132 131 131 131 130 128 125 122 119 114 110 106 104 103 101 99 96 94 93 91 90 90 89
257 252 247 264 284 312 26 49 48 80 92 84 89 87 80 81 107 124 130 128 124 127 130 134 135 134 133 133 132 131 131 130 128 126 122 118 114 111 108 105 103 103 101 99 97 95 93 93 91
249 260 251 269 283 331 27 29 20 44 75 65 70 95 93 91 108 127 137 131 132 130 130 137 137 135 135 135 135 134 133 132 130 127 124 122 118 115 113 111 107 106 104 102 100 99 96 96 91
260 259 268 277 272 22 41 40 4 35 56 51 66 104 98 115 120 135 140 137 135 132 132 136 138 137 138 138 138 137 136 134 133 131 130 128 128 125 122 119 113 110 109 107 104 102 101 99 95
264 282 285 285 298 22 46 23 15 30 48 45 32 96 123 126 129 140 139 140 134 132 132 140 142 141 142 142 141 141 141 140 139 138 139 138 137 136 133 129 122 117 116 115 113 111 111 109 108
264 285 290 293 317 43 59 24 42 42 61 52 23 71 121 128 138 139 141 145 136 135 139 145 146 146 148 147 147 147 148 148 148 149 152 153 153 153 150 144 137 131 128 128 127 126 131 143 168
258 267 284 315 358 35 42 18 26 89 107 77 67 92 125 140 141 143 148 149 139 138 143 150 147 152 156 153 151 153 155 157 157 162 169 172 177 170 165 150 145 144 143 145 147 155 174 194 212
245 262 289 346 355 355 8 2 340 316 91 95 95 101 122 138 145 155 160 153 141 140 148 150 150 156 160 152 150 160 163 164 177 171 179 192 182 157 148 147 150 154 160 165 171 185 210 226 222
253 267 302 333 345 337 332 332 321 309 81 90 115 130 137 144 151 159 162 156 146 146 147 148 146 152 151 135 154 156 155 165 182 169 176 161 150 143 140 150 155 169 180 185 176 197 222 247 299
256 277 291 298 314 304 306 315 342 34 90 94 117 132 142 150 160 169 173 160 147 147 146 142 142 144 132 136 142 144 148 162 151 146 153 133 121 108 120 133 143 156 151 145 150 165 210 325 343
254 261 267 268 271 274 289 286 300 86 98 105 122 138 148 161 161 169 171 158 146 148 141 130 136 130 124 111 128 143 135 135 129 137 133 129 128 115 106 100 108 138 133 139 141 112 89 336 331
273 274 276 274 275 257 254 263 197 128 116 124 137 146 155 162 163 169 174 164 156 154 141 132 132 129 127 125 127 112 120 114 122 126 131 127 115 112 115 123 121 101 108 114 124 141 160 249 268
273 272 271 268 253 244 256 256 180 131 138 159 159 161 157 161 166 172 173 172 161 153 145 137 137 139 143 147 159 144 134 133 121 116 123 119 116 124 125 125 120 108 123 133 138 173 179 212 236
269 267 274 270 249 228 242 255 145 153 171 179 177 170 160 160 168 176 170 165 160 154 148 153 153 146 147 146 156 141 140 127 124 124 122 125 129 134 134 122 112 141 140 138 143 59 25 37 343
264 262 265 260 233 234 248 262 159 176 180 181 177 169 166 171 176 176 165 160 159 152 149 153 143 146 148 146 148 141 117 110 122 130 132 135 143 152 132 109 113 185 114 83 61 69 21 359 329
282 277 267 270 236 251 267 242 170 179 182 184 173 168 177 179 176 166 163 163 156 154 153 150 144 146 146 145 151 142 130 127 126 126 130 143 158 148 126 125 130 107 83 70 64 40 313 292 291
282 292 297 298 292 278 276 246 186 179 180 180 173 174 180 179 166 162 163 166 159 159 157 152 152 151 147 151 160 156 148 150 145 143 144 156 154 135 128 117 134 118 104 86 58 9 319 292 356
281 290 297 303 293 275 277 262 192 175 180 180 178 173 176 174 162 158 165 167 159 158 157 151 152 156 158 161 161 160 147 161 154 137 143 154 144 148 149 121 143 106 119 108 80 40 338 337 23
279 287 298 295 285 275 284 268 191 167 174 181 183 173 176 173 166 165 167 163 158 160 160 160 159 161 161 158 157 149 141 159 146 140 151 160 155 160 121 134 119 123 149 125 116 50 9 356 328
278 291 293 291 288 289 285 274 192 172 179 188 188 177 176 172 167 167 168 163 162 163 162 153 156 158 158 162 162 162 172 171 156 153 153 159 165 164 149 143 130 103 77 111 155 84 353 337 322
280 292 292 294 293 295 297 275 200 175 186 187 184 176 171 167 168 168 167 165 164 164 161 156 156 159 163 172 172 177 177 168 150 145 142 161 166 171 159 145 133 129 100 105 86 74 359 340 350
272 286 294 301 315 309 280 271 193 185 196 183 173 169 167 166 164 163 163 162 163 162 160 159 160 162 167 171 170 181 182 160 145 148 157 180 169 176 162 148 138 161 144 115 116 101 210 345 14
260 274 292 305 313 271 277 282 186 173 172 168 163 163 166 166 165 165 165 167 166 164 162 161 162 163 167 168 168 173 168 150 148 163 171 194 173 164 159 150 146 163 136 143 142 175 246 217 35
252 253 258 281 285 273 259 253 166 152 129 145 152 156 162 165 165 167 166 166 169 167 163 160 162 165 168 165 162 162 163 173 174 191 178 191 184 152 147 141 156 161 166 178 157 220 197 167 193
253 256 272 280 280 285 239 344 55 126 126 143 150 157 164 166 166 168 168 169 171 170 166 163 163 166 168 164 160 167 180 197 171 168 194 170 149 144 144 153 161 165 169 165 158 232 210 150 210
247 264 277 282 296 302 307 86 151 273 170 159 162 164 166 168 168 171 172 174 173 171 166 163 165 171 170 167 174 179 186 184 170 174 183 160 147 133 145 157 163 170 170 176 199 235 196 199 217
249 250 261 278 281 294 297 276 194 218 210 174 169 167 169 171 172 172 173 174 172 172 171 170 168 172 174 176 185 174 177 181 181 184 174 164 159 152 162 168 174 182 183 182 196 243 209 209 225
245 253 254 256 269 277 289 277 164 156 196 174 166 162 166 171 172 173 174 173 174 176 175 174 175 180 181 181 181 179 180 181 184 186 177 170 171 170 175 180 188 199 195 190 199 229 231 221 226
Height
1495 1494 1494 1497 1495 1494 1491 1471 1462 1464 1467 1470 1472 1473 1478 1484 1491 1503 1502 1503 1505 1508 1514 1518 1522 1525 1528 1531 1533 1535 1537 1539 1541 1542 1544 1545 1546 1547 1548 1549 1550 1551 1552 1553 1553 1554 1554 1555 1556
1494 1495 1497 1494 1491 1498 1488 1470 1466 1467 1471 1473 1474 1476 1479 1487 1492 1498 1501 1505 1506 1510 1515 1519 1522 1526 1529 1532 1534 1537 1539 1541 1542 1544 1545 1547 1548 1549 1550 1551 1552 1553 1554 1554 1555 1556 1556 1557 1558
1494 1495 1495 1485 1483 1484 1478 1468 1467 1467 1472 1474 1476 1478 1483 1491 1495 1499 1503 1506 1508 1511 1516 1519 1523 1527 1530 1533 1536 1538 1540 1542 1544 1545 1547 1548 1549 1551 1552 1552 1553 1554 1555 1556 1557 1558 1559 1559 1560
1496 1495 1491 1483 1481 1469 1464 1464 1466 1469 1474 1475 1477 1482 1488 1493 1496 1500 1503 1507 1509 1512 1516 1520 1524 1528 1531 1534 1537 1539 1541 1543 1545 1547 1548 1550 1551 1552 1553 1554 1555 1556 1557 1558 1559 1560 1561 1561 1562
1497 1492 1487 1485 1479 1466 1462 1465 1468 1470 1473 1476 1479 1485 1490 1495 1497 1500 1504 1508 1511 1513 1516 1521 1525 1528 1531 1535 1537 1540 1542 1544 1546 1548 1549 1551 1552 1554 1555 1556 1556 1557 1558 1559 1560 1561 1562 1563 1564
1495 1485 1487 1484 1473 1465 1464 1467 1469 1471 1474 1477 1480 1485 1493 1496 1498 1502 1505 1509 1512 1514 1517 1521 1525 1529 1532 1535 1538 1540 1543 1545 1547 1549 1550 1552 1553 1555 1556 1557 1558 1559 1560 1561 1562 1563 1564 1565 1566
1493 1485 1482 1474 1469 1467 1466 1468 1471 1474 1477 1480 1482 1485 1493 1496 1499 1502 1506 1509 1512 1514 1517 1521 1525 1529 1533 1536 1538 1541 1543 1546 1547 1549 1551 1553 1554 1555 1557 1558 1559 1560 1561 1562 1563 1564 1565 1566 1567
1490 1485 1479 1470 1468 1469 1468 1470 1472 1476 1480 1483 1484 1486 1493 1496 1499 1502 1506 1509 1512 1515 1518 1521 1525 1529 1533 1536 1539 1541 1544 1546 1548 1550 1552 1553 1555 1556 1557 1558 1560 1561 1562 1563 1564 1565 1566 1567 1568
1487 1486 1482 1471 1468 1468 1468 1471 1474 1477 1480 1483 1485 1488 1492 1495 1499 1503 1506 1509 1512 1516 1519 1523 1526 1529 1533 1536 1539 1542 1544 1546 1548 1550 1552 1554 1555 1557 1558 1559 1560 1561 1562 1563 1564 1565 1566 1567 1568
1482 1483 1477 1467 1467 1467 1470 1472 1475 1476 1479 1484 1486 1490 1492 1495 1499 1502 1504 1507 1511 1516 1520 1523 1526 1530 1534 1537 1539 1542 1544 1546 1549 1551 1553 1554 1556 1558 1559 1560 1561 1562 1562 1563 1564 1565 1567 1567 1568
1476 1475 1470 1468 1469 1470 1471 1473 1474 1476 1480 1484 1488 1491 1493 1495 1499 1501 1503 1507 1511 1516 1520 1523 1526 1530 1534 1537 1539 1542 1545 1547 1549 1551 1553 1555 1557 1558 1559 1560 1560 1561 1562 1563 1564 1565 1566 1567 1568
1474 1472 1470 1470 1470 1471 1472 1473 1474 1477 1482 1485 1488 1491 1494 1496 1499 1501 1503 1507 1512 1515 1519 1522 1525 1529 1533 1536 1539 1542 1545 1547 1549 1551 1553 1555 1557 1558 1559 1559 1560 1561 1562 1563 1564 1564 1565 1566 1567
1471 1470 1469 1469 1470 1470 1472 1473 1475 1479 1483 1486 1489 1491 1493 1496 1499 1501 1503 1506 1510 1514 1518 1521 1524 1528 1532 1536 1539 1542 1545 1547 1549 1551 1553 1555 1556 1557 1558 1559 1560 1561 1562 1562 1563 1564 1564 1565 1566
1468 1467 1467 1467 1468 1469 1470 1471 1475 1480 1483 1486 1489 1491 1493 1495 1498 1501 1502 1505 1508 1513 1517 1519 1523 1527 1531 1534 1538 1541 1544 1546 1548 1550 1552 1554 1555 1556 1558 1559 1560 1560 1561 1561 1562 1563 1563 1564 1565
1468 1468 1467 1466 1466 1467 1469 1472 1473 1479 1482 1485 1488 1490 1493 1495 1498 1500 1502 1504 1507 1511 1515 1518 1522 1526 1530 1534 1537 1540 1543 1546 1548 1549 1551 1553 1554 1555 1557 1558 1559 1559 1560 1561 1561 1562 1562 1563 1563
1467 1470 1475 1467 1465 1464 1470 1477 1474 1479 1481 1484 1486 1488 1491 1493 1495 1498 1500 1502 1506 1510 1514 1517 1522 1525 1529 1533 1536 1540 1543 1545 1547 1548 1550 1551 1553 1554 1556 1557 1558 1558 1560 1560 1561 1561 1562 1562 1562
1469 1475 1476 1468 1462 1461 1464 1471 1471 1476 1479 1482 1484 1487 1490 1492 1494 1495 1498 1501 1504 1508 1512 1517 1521 1524 1528 1532 1535 1539 1542 1544 1546 1547 1549 1551 1552 1554 1555 1556 1557 1558 1559 1560 1560 1560 1561 1561 1561
1474 1469 1469 1466 1458 1457 1461 1465 1467 1471 1475 1479 1482 1486 1488 1490 1492 1494 1497 1500 1503 1507 1511 1516 1519 1523 1527 1530 1534 1538 1541 1543 1545 1547 1548 1550 1552 1553 1555 1555 1556 1557 1558 1559 1559 1559 1560 1560 1561
1460 1461 1463 1459 1453 1457 1459 1461 1462 1467 1471 1475 1480 1483 1486 1488 1490 1493 1495 1498 1502 1505 1510 1513 1517 1521 1525 1529 1533 1536 1539 1542 1544 1546 1547 1549 1551 1553 1554 1555 1556 1557 1557 1558 1558 1559 1559 1560 1560
1458 1461 1461 1456 1451 1454 1457 1457 1456 1461 1467 1472 1477 1480 1484 1487 1489 1491 1495 1497 1500 1504 1508 1512 1516 1520 1524 1528 1532 1535 1538 1540 1543 1545 1546 1549 1551 1552 1554 1554 1555 1556 1556 1557 1557 1557 1558 1559 1560
1458 1460 1460 1459 1453 1449 1456 1461 1458 1460 1465 1470 1474 1477 1481 1484 1487 1491 1494 1497 1500 1504 1507 1512 1515 1520 1523 1527 1531 1534 1537 1540 1542 1544 1546 1548 1550 1551 1552 1553 1554 1555 1556 1556 1556 1556 1557 1558 1559
1461 1452 1453 1453 1458 1461 1462 1477 1463 1460 1464 1468 1471 1474 1478 1482 1486 1489 1493 1497 1500 1503 1507 1511 1515 1519 1522 1526 1529 1532 1535 1538 1541 1543 1544 1547 1549 1550 1551 1552 1553 1554 1555 1555 1555 1555 1557 1557 1558
1453 1448 1450 1453 1458 1464 1468 1473 1467 1457 1463 1464 1467 1471 1475 1479 1484 1487 1491 1495 1499 1503 1506 1510 1514 1517 1520 1524 1528 1531 1535 1537 1540 1542 1544 1545 1547 1548 1549 1550 1551 1552 1553 1553 1554 1554 1555 1556 1557
1446 1449 1453 1457 1468 1489 1478 1474 1470 1457 1455 1456 1461 1467 1472 1477 1482 1486 1490 1494 1498 1502 1505 1509 1512 1516 1520 1523 1527 1530 1533 1536 1538 1540 1542 1544 1545 1546 1548 1549 1550 1551 1551 1552 1552 1553 1554 1555 1555
1448 1462 1479 1487 1494 1497 1475 1473 1465 1448 1445 1450 1457 1463 1470 1475 1480 1485 1489 1493 1497 1501 1504 1507 1510 1514 1518 1522 1525 1528 1531 1533 1536 1538 1540 1542 1544 1544 1546 1547 1548 1549 1550 1550 1551 1552 1553 1553 1554
1450 1458 1479 1494 1495 1486 1475 1475 1459 1444 1444 1448 1454 1461 1468 1473 1478 1483 1487 1491 1495 1499 1503 1506 1508 1512 1517 1520 1523 1526 1529 1532 1534 1537 1539 1540 1542 1543 1544 1545 1546 1547 1548 1549 1550 1551 1552 1552 1552
1449 1450 1447 1461 1466 1472 1474 1467 1456 1444 1446 1448 1454 1460 1466 1471 1476 1481 1485 1490 1494 1498 1501 1505 1508 1511 1515 1518 1521 1524 1527 1530 1533 1535 1537 1539 1540 1541 1542 1543 1544 1545 1546 1547 1548 1549 1550 1551 1551
1438 1441 1449 1460 1476 1481 1475 1473 1472 1458 1449 1449 1452 1457 1464 1469 1475 1479 1484 1488 1492 1496 1500 1504 1507 1510 1513 1516 1519 1522 1525 1527 1530 1532 1534 1536 1538 1539 1540 1541 1542 1543 1544 1545 1546 1547 1548 1549 1549
1443 1445 1448 1453 1458 1475 1482 1477 1454 1452 1449 1448 1450 1455 1461 1466 1472 1477 1482 1486 1491 1495 1498 1502 1505 1508 1511 1515 1517 1520 1522 1525 1527 1529 1532 1533 1535 1536 1538 1539 1540 1542 1543 1544 1544 1545 1547 1547 1547
1437 1444 1448 1464 1465 1459 1465 1467 1443 1443 1443 1445 1448 1453 1458 1464 1469 1474 1479 1484 1488 1492 1496 1499 1502 1506 1509 1512 1515 1517 1520 1522 1524 1527 1529 1530 1532 1533 1535 1536 1538 1539 1541 1542 1542 1543 1544 1545 1545